Satellite-Ground Cal/Val Region Overpasses Predictions

Prediction of Satellite NPP Overpassing Cal/Val Region: PacNW

Region Location: (Latitude: 10.00, Longitude: 139.50) to (Latitude: 22.70, Longitude: 165.60).

Table of predicted overpasses for the next 14.0 days since TLE Epoch: 2/16/2018
Interval Starting Time Starting Location Ending Time Ending Location
1 02/17/2018 03:36:06 ( 10.05, 145.64) 02/17/2018 03:39:41 ( 22.67, 142.64)
2 02/17/2018 14:29:39 ( 11.50, 165.59) 02/17/2018 14:30:04 ( 10.03, 165.25)
3 02/17/2018 16:07:58 ( 22.70, 142.89) 02/17/2018 16:11:34 ( 10.02, 139.87)
4 02/18/2018 03:17:03 ( 10.00, 150.42) 02/18/2018 03:20:39 ( 22.68, 147.40)
5 02/18/2018 15:48:56 ( 22.69, 147.65) 02/18/2018 15:52:32 ( 10.01, 144.63)
6 02/19/2018 02:58:00 ( 10.01, 155.17) 02/19/2018 03:01:36 ( 22.69, 152.16)
7 02/19/2018 15:29:53 ( 22.68, 152.41) 02/19/2018 15:33:28 ( 10.05, 149.40)
8 02/20/2018 02:38:58 ( 10.03, 159.93) 02/20/2018 02:42:33 ( 22.65, 156.93)
9 02/20/2018 15:10:51 ( 22.66, 157.16) 02/20/2018 15:14:26 ( 10.04, 154.16)
10 02/21/2018 02:19:55 ( 10.04, 164.69) 02/21/2018 02:23:30 ( 22.66, 161.69)
11 02/21/2018 14:51:48 ( 22.65, 161.92) 02/21/2018 14:55:23 ( 10.03, 158.92)
12 02/22/2018 03:42:22 ( 10.00, 144.09) 02/22/2018 03:45:58 ( 22.68, 141.07)
13 02/22/2018 14:34:02 ( 18.18, 165.59) 02/22/2018 14:36:21 ( 10.02, 163.68)
14 02/22/2018 16:14:15 ( 22.69, 141.32) 02/22/2018 16:16:22 ( 15.24, 139.51)
15 02/23/2018 03:23:19 ( 10.01, 148.84) 02/23/2018 03:26:55 ( 22.69, 145.83)
16 02/23/2018 15:55:12 ( 22.68, 146.08) 02/23/2018 15:58:47 ( 10.05, 143.07)
17 02/24/2018 03:04:17 ( 10.03, 153.60) 02/24/2018 03:07:52 ( 22.65, 150.60)
18 02/24/2018 15:36:10 ( 22.66, 150.83) 02/24/2018 15:39:45 ( 10.04, 147.83)
19 02/25/2018 02:45:15 ( 10.04, 158.36) 02/25/2018 02:48:50 ( 22.66, 155.36)
20 02/25/2018 15:17:07 ( 22.65, 155.59) 02/25/2018 15:20:42 ( 10.03, 152.59)
21 02/26/2018 02:26:12 ( 10.05, 163.12) 02/26/2018 02:29:47 ( 22.67, 160.11)
22 02/26/2018 14:58:04 ( 22.69, 160.36) 02/26/2018 15:01:40 ( 10.01, 157.35)
23 02/27/2018 02:09:55 ( 19.76, 165.60) 02/27/2018 02:10:45 ( 22.69, 164.87)
24 02/27/2018 03:48:39 ( 10.02, 142.51) 02/27/2018 03:52:14 ( 22.64, 139.51)
25 02/27/2018 14:39:01 ( 22.68, 165.12) 02/27/2018 14:42:36 ( 10.06, 162.12)
26 02/27/2018 16:20:31 ( 22.67, 139.74) 02/27/2018 16:20:47 ( 21.73, 139.51)
27 02/28/2018 03:29:36 ( 10.03, 147.27) 02/28/2018 03:33:11 ( 22.65, 144.27)
28 02/28/2018 16:01:29 ( 22.66, 144.50) 02/28/2018 16:05:04 ( 10.03, 141.50)
29 03/01/2018 03:10:34 ( 10.05, 152.03) 03/01/2018 03:14:09 ( 22.67, 149.03)
30 03/01/2018 15:42:25 ( 22.70, 149.27) 03/01/2018 15:46:01 ( 10.02, 146.26)
31 03/02/2018 02:51:30 ( 10.00, 156.80) 03/02/2018 02:55:06 ( 22.68, 153.78)


NCC Satellite Cal/Val Overpasses Prediction Service
